+ View the NASA Portal
+ Center for Near-Earth Object Studies
IMPORTANT:
The SSD Announcement email list is now available. Major changes are coming in the near future, including possible hostname and/or URL changes. To be notified of such changes, subscribe to this email list.
Please visit
this page
for more details.
Don't show this message again
JPL Small-Body Database Browser
Search:
[
help
]
8617 (1980 PW)
Classification:
Main-belt Asteroid
SPK-ID:
2008617
[
Ephemeris
|
Orbit Diagram
|
Orbital Elements
|
Mission Design
|
Physical Parameters
|
Discovery Circumstances
|
Close-Approach Data
]
[ show orbit diagram ]
Orbital Elements at Epoch 2458600.5 (2019-Apr-27.0) TDB
Reference:
JPL 35
(heliocentric ecliptic J2000)
Element
Value
Uncertainty (1-sigma)
Units
e
.2136531769952037
4.0118e-08
a
2.422945426759727
7.2467e-09
au
q
1.905275438646512
9.6898e-08
au
i
4.013880200898349
3.745e-06
deg
node
310.6611141990932
5.739e-05
deg
peri
55.4450492806732
5.8057e-05
deg
M
65.99212371133416
7.5183e-06
deg
t
p
2458347.975523499587
(2018-Aug-17.47552350)
2.8683e-05
TDB
period
1377.570631577282
3.77
6.1802e-06
1.692e-08
d
yr
n
.2613296129780361
1.1724e-09
deg/d
Q
2.940615414872942
8.795e-09
au
Orbit Determination Parameters
# obs. used (total)
1906
data-arc span
25252 days (69.14 yr)
first obs. used
1950-10-06
last obs. used
2019-11-25
planetary ephem.
DE431
SB-pert. ephem.
SB431-N16
condition code
0
norm. resid. RMS
.49084
source
ORB
producer
Otto Matic
solution date
2019-Dec-03 22:00:59
Additional Information
Earth MOID
= .906084 au
Jupiter MOID
= 2.53407 au
T_jup
= 3.478
[ show covariance matrix ]
[
Ephemeris
|
Orbit Diagram
|
Orbital Elements
|
Mission Design
|
Physical Parameters
|
Discovery Circumstances
|
Close-Approach Data
]
Physical Parameter Table
Parameter
Symbol
Value
Units
Sigma
Reference
Notes
absolute magnitude
H
14.0
n/a
MPO458915
diameter
diameter
5.058
km
0.249
urn:nasa:pds:neowise_diameters_albedos::2.0[mainbelt] (http://adsabs.harvard.edu/abs/2011ApJ...741...68M)
geometric albedo
albedo
0.209
0.061
urn:nasa:pds:neowise_diameters_albedos::2.0[mainbelt] (http://adsabs.harvard.edu/abs/2011ApJ...741...68M)
8617 (1980 PW)
Discovered 1980-Aug-06 by Vavrova, Z. at Klet
Reference:
19980511/Numbers.arc
Last Updated:
2004-04-19
[ show close-approach data ]
Alternate Designations
1980 PW
= 1950 TO = 1984 SE5
[
Ephemeris
|
Orbit Diagram
|
Orbital Elements
|
Mission Design
|
Physical Parameters
|
Discovery Circumstances
|
Close-Approach Data
]
2019-Dec-08 16:27 UT
(server date/time)
Site Manager:
Ryan S. Park
Webmaster
:
Alan B. Chamberlin